Year,Month,Day,Hour,Minute,Value (Times are PST for temperature in C)
2012,10,01,00,00,9.60
2012,10,01,00,01,9.50
2012,10,01,00,02,9.50
2012,10,01,00,03,9.50
2012,10,01,00,04,9.50
2012,10,01,00,05,9.50
2012,10,01,00,06,9.50
2012,10,01,00,07,9.50
2012,10,01,00,08,9.40
2012,10,01,00,09,9.40
2012,10,01,00,10,9.40
2012,10,01,00,11,9.40
2012,10,01,00,12,9.40
2012,10,01,00,13,9.40
2012,10,01,00,14,9.40
2012,10,01,00,15,9.40
2012,10,01,00,16,9.40
2012,10,01,00,17,9.40
2012,10,01,00,18,9.40
2012,10,01,00,19,9.40
2012,10,01,00,20,9.40
2012,10,01,00,21,9.40
2012,10,01,00,22,9.40
2012,10,01,00,23,9.40
2012,10,01,00,24,9.30
2012,10,01,00,25,9.30
2012,10,01,00,26,9.30
2012,10,01,00,27,9.30
2012,10,01,00,28,9.30
2012,10,01,00,29,9.30
2012,10,01,00,30,9.20
2012,10,01,00,31,9.20
2012,10,01,00,32,9.20
2012,10,01,00,33,9.20
2012,10,01,00,34,9.20
2012,10,01,00,35,9.20
2012,10,01,00,36,9.20
2012,10,01,00,37,9.20
2012,10,01,00,38,9.20
2012,10,01,00,39,9.20
2012,10,01,00,40,9.20
2012,10,01,00,41,9.20
2012,10,01,00,42,9.20
2012,10,01,00,43,9.20
2012,10,01,00,44,9.20
2012,10,01,00,45,9.20
2012,10,01,00,46,9.20
2012,10,01,00,47,9.20
2012,10,01,00,48,9.20
2012,10,01,00,49,9.20
2012,10,01,00,50,9.10
2012,10,01,00,51,9.10
2012,10,01,00,52,9.10
2012,10,01,00,53,9.10
2012,10,01,00,54,9.10
2012,10,01,00,55,9.10
2012,10,01,00,56,9.10
2012,10,01,00,57,9.10
2012,10,01,00,58,9.10
2012,10,01,00,59,9.10
2012,10,01,01,00,9.10
2012,10,01,01,01,9.10
2012,10,01,01,02,9.10
2012,10,01,01,03,9.10
2012,10,01,01,04,9.10
2012,10,01,01,05,9.10
2012,10,01,01,06,9.10
2012,10,01,01,07,9.10
2012,10,01,01,08,9.10
2012,10,01,01,09,9.10
2012,10,01,01,10,9.10
2012,10,01,01,11,9.10
2012,10,01,01,12,9.10
2012,10,01,01,13,9.10
2012,10,01,01,14,9.10
2012,10,01,01,15,9.00
2012,10,01,01,16,9.00
2012,10,01,01,17,9.00
2012,10,01,01,18,9.00
2012,10,01,01,19,9.00
2012,10,01,01,20,8.90
2012,10,01,01,21,8.90
2012,10,01,01,22,8.90
2012,10,01,01,23,8.90
2012,10,01,01,24,8.90
2012,10,01,01,25,8.90
2012,10,01,01,26,8.90
2012,10,01,01,27,8.90
2012,10,01,01,28,8.90
2012,10,01,01,29,8.90
2012,10,01,01,30,8.90
2012,10,01,01,31,8.90
2012,10,01,01,32,8.90
2012,10,01,01,33,8.90
2012,10,01,01,34,8.90
2012,10,01,01,35,8.90
2012,10,01,01,36,8.80
2012,10,01,01,37,8.80
2012,10,01,01,38,8.80
2012,10,01,01,39,8.80
2012,10,01,01,40,8.80
2012,10,01,01,41,8.80
2012,10,01,01,42,8.70
2012,10,01,01,43,8.70
2012,10,01,01,44,8.70
2012,10,01,01,45,8.70
2012,10,01,01,46,8.70
2012,10,01,01,47,8.70
2012,10,01,01,48,8.70
2012,10,01,01,49,8.70
2012,10,01,01,50,8.70
2012,10,01,01,51,8.70
2012,10,01,01,52,8.70
2012,10,01,01,53,8.60
2012,10,01,01,54,8.60
2012,10,01,01,55,8.60
2012,10,01,01,56,8.60
2012,10,01,01,57,8.60
2012,10,01,01,58,8.60
2012,10,01,01,59,8.60
2012,10,01,02,00,8.60
2012,10,01,02,01,8.60
2012,10,01,02,02,8.60
2012,10,01,02,03,8.60
2012,10,01,02,04,8.50
2012,10,01,02,05,8.50
2012,10,01,02,06,8.50
2012,10,01,02,07,8.50
2012,10,01,02,08,8.50
2012,10,01,02,09,8.50
2012,10,01,02,10,8.50
2012,10,01,02,11,8.60
2012,10,01,02,12,8.60
2012,10,01,02,13,8.60
2012,10,01,02,14,8.60
2012,10,01,02,15,8.60
2012,10,01,02,16,8.60
2012,10,01,02,17,8.60
2012,10,01,02,18,8.60
2012,10,01,02,19,8.60
2012,10,01,02,20,8.60
2012,10,01,02,21,8.60
2012,10,01,02,22,8.60
2012,10,01,02,23,8.60
2012,10,01,02,24,8.60
2012,10,01,02,25,8.60
2012,10,01,02,26,8.60
2012,10,01,02,27,8.60
2012,10,01,02,28,8.60
2012,10,01,02,29,8.60
2012,10,01,02,30,8.60
2012,10,01,02,31,8.60
2012,10,01,02,32,8.60
2012,10,01,02,33,8.60
2012,10,01,02,34,8.60
2012,10,01,02,35,8.60
2012,10,01,02,36,8.60
2012,10,01,02,37,8.60
2012,10,01,02,38,8.60
2012,10,01,02,39,8.60
2012,10,01,02,40,8.60
2012,10,01,02,41,8.60
2012,10,01,02,42,8.60
2012,10,01,02,43,8.60
2012,10,01,02,44,8.60
2012,10,01,02,45,8.60
2012,10,01,02,46,8.60
2012,10,01,02,47,8.60
2012,10,01,02,48,8.60
2012,10,01,02,49,8.60
2012,10,01,02,50,8.60
2012,10,01,02,51,8.60
2012,10,01,02,52,8.60
2012,10,01,02,53,8.50
2012,10,01,02,54,8.50
2012,10,01,02,55,8.50
2012,10,01,02,56,8.50
2012,10,01,02,57,8.50
2012,10,01,02,58,8.40
2012,10,01,02,59,8.40
2012,10,01,03,00,8.40
2012,10,01,03,01,8.40
2012,10,01,03,02,8.40
2012,10,01,03,06,8.40
2012,10,01,03,07,8.40
2012,10,01,03,08,8.40
2012,10,01,03,09,8.40
2012,10,01,03,10,8.40
2012,10,01,03,11,8.40
2012,10,01,03,12,8.40
2012,10,01,03,13,8.40
2012,10,01,03,14,8.30
2012,10,01,03,15,8.40
2012,10,01,03,16,8.40
2012,10,01,03,17,8.40
2012,10,01,03,18,8.40
2012,10,01,03,19,8.40
2012,10,01,03,20,8.30
2012,10,01,03,21,8.30
2012,10,01,03,22,8.30
2012,10,01,03,23,8.30
2012,10,01,03,24,8.30
2012,10,01,03,25,8.30
2012,10,01,03,26,8.30
2012,10,01,03,27,8.30
2012,10,01,03,28,8.30
2012,10,01,03,29,8.20
2012,10,01,03,30,8.20
2012,10,01,03,31,8.20
2012,10,01,03,32,8.20
2012,10,01,03,33,8.20
2012,10,01,03,34,8.20
2012,10,01,03,35,8.20
2012,10,01,03,36,8.20
2012,10,01,03,37,8.20
2012,10,01,03,38,8.20
2012,10,01,03,39,8.20
2012,10,01,03,40,8.20
2012,10,01,03,41,8.20
2012,10,01,03,42,8.20
2012,10,01,03,43,8.20
2012,10,01,03,44,8.20
2012,10,01,03,45,8.20
2012,10,01,03,46,8.20
2012,10,01,03,47,8.10
2012,10,01,03,48,8.10
2012,10,01,03,49,8.10
2012,10,01,03,50,8.10
2012,10,01,03,51,8.10
2012,10,01,03,52,8.10
2012,10,01,03,53,8.10
2012,10,01,03,54,8.10
2012,10,01,03,55,8.10
2012,10,01,03,56,8.10
2012,10,01,03,57,8.10
2012,10,01,03,58,8.10
2012,10,01,03,59,8.10
2012,10,01,04,00,8.10
2012,10,01,04,01,8.10
2012,10,01,04,02,8.10
2012,10,01,04,03,8.10
2012,10,01,04,04,8.10
2012,10,01,04,05,8.00
2012,10,01,04,06,8.00
2012,10,01,04,07,8.00
2012,10,01,04,08,8.00
2012,10,01,04,09,8.00
2012,10,01,04,10,8.10
2012,10,01,04,11,8.10
2012,10,01,04,12,8.00
2012,10,01,04,13,8.00
2012,10,01,04,14,8.00
2012,10,01,04,15,8.00
2012,10,01,04,16,8.00
2012,10,01,04,17,8.00
2012,10,01,04,18,8.00
2012,10,01,04,19,8.00
2012,10,01,04,20,8.00
2012,10,01,04,21,8.00
2012,10,01,04,22,7.90
2012,10,01,04,23,7.90
2012,10,01,04,24,7.90
2012,10,01,04,25,7.90
2012,10,01,04,26,7.90
2012,10,01,04,27,7.90
2012,10,01,04,28,7.90
2012,10,01,04,29,7.90
2012,10,01,04,30,7.90
2012,10,01,04,31,7.90
2012,10,01,04,32,7.90
2012,10,01,04,33,7.90
2012,10,01,04,34,7.90
2012,10,01,04,35,7.90
2012,10,01,04,36,7.90
2012,10,01,04,37,7.90
2012,10,01,04,38,7.90
2012,10,01,04,39,7.90
2012,10,01,04,40,7.90
2012,10,01,04,41,7.90
2012,10,01,04,42,7.90
2012,10,01,04,43,7.90
2012,10,01,04,44,7.80
2012,10,01,04,45,7.80
2012,10,01,04,46,7.80
2012,10,01,04,47,7.80
2012,10,01,04,48,7.80
2012,10,01,04,49,7.80
2012,10,01,04,50,7.80
2012,10,01,04,51,7.80
2012,10,01,04,52,7.80
2012,10,01,04,53,7.80
2012,10,01,04,54,7.80
2012,10,01,04,55,7.80
2012,10,01,04,56,7.80
2012,10,01,04,57,7.80
2012,10,01,04,58,7.80
2012,10,01,04,59,7.80
2012,10,01,05,00,7.80
2012,10,01,05,01,7.80
2012,10,01,05,02,7.80
2012,10,01,05,03,7.70
2012,10,01,05,04,7.70
2012,10,01,05,05,7.70
2012,10,01,05,06,7.70
2012,10,01,05,07,7.70
2012,10,01,05,08,7.70
2012,10,01,05,09,7.70
2012,10,01,05,10,7.70
2012,10,01,05,11,7.70
2012,10,01,05,12,7.70
2012,10,01,05,13,7.70
2012,10,01,05,14,7.70
2012,10,01,05,15,7.70
2012,10,01,05,16,7.70
2012,10,01,05,17,7.70
2012,10,01,05,18,7.70
2012,10,01,05,19,7.70
2012,10,01,05,20,7.70
2012,10,01,05,21,7.70
2012,10,01,05,22,7.60
2012,10,01,05,23,7.60
2012,10,01,05,24,7.60
2012,10,01,05,25,7.60
2012,10,01,05,26,7.60
2012,10,01,05,27,7.60
2012,10,01,05,28,7.60
2012,10,01,05,29,7.70
2012,10,01,05,30,7.60
2012,10,01,05,31,7.70
2012,10,01,05,32,7.70
2012,10,01,05,33,7.70
2012,10,01,05,34,7.60
2012,10,01,05,35,7.60
2012,10,01,05,36,7.60
2012,10,01,05,37,7.60
2012,10,01,05,38,7.60
2012,10,01,05,39,7.60
2012,10,01,05,40,7.60
2012,10,01,05,41,7.60
2012,10,01,05,42,7.60
2012,10,01,05,43,7.60
2012,10,01,05,44,7.70
2012,10,01,05,45,7.70
2012,10,01,05,46,7.70
2012,10,01,05,47,7.70
2012,10,01,05,48,7.70
2012,10,01,05,49,7.70
2012,10,01,05,50,7.70
2012,10,01,05,51,7.70
2012,10,01,05,52,7.70
2012,10,01,05,53,7.70
2012,10,01,05,54,7.70
2012,10,01,05,55,7.70
2012,10,01,05,56,7.70
2012,10,01,05,57,7.70
2012,10,01,05,58,7.70
2012,10,01,05,59,7.70
2012,10,01,06,00,7.70
2012,10,01,06,01,7.70
2012,10,01,06,02,7.70
2012,10,01,06,03,7.70
2012,10,01,06,04,7.70
2012,10,01,06,05,7.70
2012,10,01,06,06,7.60
2012,10,01,06,07,7.70
2012,10,01,06,08,7.60
2012,10,01,06,09,7.60
2012,10,01,06,10,7.60
2012,10,01,06,11,7.60
2012,10,01,06,12,7.60
2012,10,01,06,13,7.60
2012,10,01,06,14,7.60
2012,10,01,06,15,7.70
2012,10,01,06,16,7.70
2012,10,01,06,17,7.70
2012,10,01,06,18,7.70
2012,10,01,06,19,7.70
2012,10,01,06,20,7.70
2012,10,01,06,21,7.70
2012,10,01,06,22,7.70
2012,10,01,06,23,7.70
2012,10,01,06,24,7.70
2012,10,01,06,25,7.70
2012,10,01,06,26,7.70
2012,10,01,06,27,7.70
2012,10,01,06,28,7.70
2012,10,01,06,29,7.70
2012,10,01,06,30,7.70
2012,10,01,06,31,7.70
2012,10,01,06,32,7.70
2012,10,01,06,33,7.70
2012,10,01,06,34,7.70
2012,10,01,06,35,7.70
2012,10,01,06,36,7.70
2012,10,01,06,37,7.70
2012,10,01,06,38,7.70
2012,10,01,06,39,7.70
2012,10,01,06,40,7.70
2012,10,01,06,41,7.70
2012,10,01,06,42,7.70
2012,10,01,06,43,7.70
2012,10,01,06,44,7.60
2012,10,01,06,45,7.60
2012,10,01,06,46,7.60
2012,10,01,06,47,7.60
2012,10,01,06,48,7.70
2012,10,01,06,49,7.70
2012,10,01,06,50,7.60
2012,10,01,06,51,7.70
2012,10,01,06,52,7.60
2012,10,01,06,53,7.60
2012,10,01,06,54,7.60
2012,10,01,06,55,7.60
2012,10,01,06,56,7.60
2012,10,01,06,57,7.60
2012,10,01,06,58,7.60
2012,10,01,06,59,7.60
2012,10,01,07,00,7.60
2012,10,01,07,01,7.60
2012,10,01,07,02,7.50
2012,10,01,07,03,7.50
2012,10,01,07,04,7.50
2012,10,01,07,05,7.40
2012,10,01,07,06,7.40
2012,10,01,07,07,7.40
2012,10,01,07,08,7.40
2012,10,01,07,09,7.40
2012,10,01,07,10,7.40
2012,10,01,07,11,7.40
2012,10,01,07,12,7.40
2012,10,01,07,13,7.40
2012,10,01,07,14,7.40
2012,10,01,07,15,7.40
2012,10,01,07,16,7.40
2012,10,01,07,17,7.40
2012,10,01,07,18,7.40
2012,10,01,07,19,7.40
2012,10,01,07,20,7.30
2012,10,01,07,21,7.30
2012,10,01,07,22,7.30
2012,10,01,07,23,7.40
2012,10,01,07,24,7.40
2012,10,01,07,25,7.40
2012,10,01,07,26,7.40
2012,10,01,07,27,7.40
2012,10,01,07,28,7.50
2012,10,01,07,29,7.50
2012,10,01,07,30,7.50
2012,10,01,07,31,7.60
2012,10,01,07,32,7.60
2012,10,01,07,33,7.60
2012,10,01,07,34,7.60
2012,10,01,07,35,7.60
2012,10,01,07,36,7.60
2012,10,01,07,37,7.70
2012,10,01,07,38,7.70
2012,10,01,07,39,7.70
2012,10,01,07,40,7.60
2012,10,01,07,41,7.70
2012,10,01,07,42,7.70
2012,10,01,07,43,7.70
2012,10,01,07,44,7.70
2012,10,01,07,45,7.80
2012,10,01,07,46,7.80
2012,10,01,07,47,7.90
2012,10,01,07,48,7.90
2012,10,01,07,49,8.00
2012,10,01,07,50,8.00
2012,10,01,07,51,8.10
2012,10,01,07,52,8.10
2012,10,01,07,53,8.20
2012,10,01,07,54,8.20
2012,10,01,07,55,8.30
2012,10,01,07,56,8.30
2012,10,01,07,57,8.40
2012,10,01,07,58,8.50
2012,10,01,07,59,8.50
2012,10,01,08,00,8.60
2012,10,01,08,01,8.70
2012,10,01,08,02,8.70
2012,10,01,08,03,8.80
2012,10,01,08,04,8.90
2012,10,01,08,05,9.00
2012,10,01,08,06,9.10
2012,10,01,08,07,9.10
2012,10,01,08,08,9.20
2012,10,01,08,09,9.30
2012,10,01,08,10,9.30
2012,10,01,08,11,9.40
2012,10,01,08,12,9.50
2012,10,01,08,13,9.60
2012,10,01,08,14,9.70
2012,10,01,08,15,9.80
2012,10,01,08,16,9.80
2012,10,01,08,17,9.90
2012,10,01,08,18,10.00
2012,10,01,08,19,10.10
2012,10,01,08,20,10.20
2012,10,01,08,21,10.30
2012,10,01,08,22,10.30
2012,10,01,08,23,10.40
2012,10,01,08,24,10.50
2012,10,01,08,25,10.60
2012,10,01,08,26,10.70
2012,10,01,08,27,10.80
2012,10,01,08,28,10.90
2012,10,01,08,29,10.90
2012,10,01,08,30,11.00
2012,10,01,08,31,11.10
2012,10,01,08,32,11.20
2012,10,01,08,33,11.30
2012,10,01,08,34,11.30
2012,10,01,08,35,11.40
2012,10,01,08,36,11.50
2012,10,01,08,37,11.60
2012,10,01,08,38,11.70
2012,10,01,08,39,11.70
2012,10,01,08,40,11.80
2012,10,01,08,41,11.90
2012,10,01,08,42,12.00
2012,10,01,08,43,12.10
2012,10,01,08,44,12.20
2012,10,01,08,45,12.20
2012,10,01,08,46,12.30
2012,10,01,08,47,12.30
2012,10,01,08,48,12.30
2012,10,01,08,49,12.30
2012,10,01,08,50,12.30
2012,10,01,08,51,12.20
2012,10,01,08,52,12.20
2012,10,01,08,53,12.20
2012,10,01,08,54,12.10
2012,10,01,08,55,12.10
2012,10,01,08,56,12.10
2012,10,01,08,57,12.10
2012,10,01,08,58,12.10
2012,10,01,08,59,12.10
2012,10,01,09,00,12.10
2012,10,01,09,01,12.10
2012,10,01,09,02,12.10
2012,10,01,09,03,12.10
2012,10,01,09,04,12.10
2012,10,01,09,05,12.00
2012,10,01,09,06,12.00
2012,10,01,09,07,12.00
2012,10,01,09,08,12.00
2012,10,01,09,09,12.00
2012,10,01,09,10,12.00
2012,10,01,09,11,12.00
2012,10,01,09,12,12.00
2012,10,01,09,13,12.00
2012,10,01,09,14,12.00
2012,10,01,09,15,12.00
2012,10,01,09,16,12.00
2012,10,01,09,17,12.10
2012,10,01,09,18,12.10
2012,10,01,09,19,12.10
2012,10,01,09,20,12.10
2012,10,01,09,21,12.10
2012,10,01,09,22,12.10
2012,10,01,09,23,12.00
2012,10,01,09,24,12.00
2012,10,01,09,25,12.00
2012,10,01,09,26,11.90
2012,10,01,09,27,11.90
2012,10,01,09,28,11.90
2012,10,01,09,29,11.90
2012,10,01,09,30,11.90
2012,10,01,09,31,11.90
2012,10,01,09,32,11.90
2012,10,01,09,33,12.00
2012,10,01,09,34,12.00
2012,10,01,09,35,12.00
2012,10,01,09,36,12.00
2012,10,01,09,37,12.00
2012,10,01,09,38,12.00
2012,10,01,09,39,12.00
2012,10,01,09,40,12.00
2012,10,01,09,41,12.00
2012,10,01,09,42,12.10
2012,10,01,09,43,12.10
2012,10,01,09,44,12.10
2012,10,01,09,45,12.10
2012,10,01,09,46,12.10
2012,10,01,09,47,12.10
2012,10,01,09,48,12.10
2012,10,01,09,49,12.10
2012,10,01,09,50,12.20
2012,10,01,09,51,12.20
2012,10,01,09,52,12.20
2012,10,01,09,53,12.20
2012,10,01,09,54,12.20
2012,10,01,09,55,12.20
2012,10,01,09,56,12.30
2012,10,01,09,57,12.30
2012,10,01,09,58,12.30
2012,10,01,09,59,12.40
2012,10,01,10,00,12.40
2012,10,01,10,01,12.40
2012,10,01,10,02,12.40
2012,10,01,10,03,12.50
2012,10,01,10,04,12.50
2012,10,01,10,05,12.60
2012,10,01,10,06,12.60
2012,10,01,10,07,12.60
2012,10,01,10,08,12.60
2012,10,01,10,09,12.60
2012,10,01,10,10,12.60
2012,10,01,10,11,12.70
2012,10,01,10,12,12.70
2012,10,01,10,13,12.70
2012,10,01,10,14,12.70
2012,10,01,10,15,12.70
2012,10,01,10,16,12.70
2012,10,01,10,17,12.70
2012,10,01,10,18,12.70
2012,10,01,10,19,12.70
2012,10,01,10,20,12.70
2012,10,01,10,21,12.70
2012,10,01,10,22,12.80
2012,10,01,10,23,12.80
2012,10,01,10,24,12.80
2012,10,01,10,25,12.80
2012,10,01,10,26,12.80
2012,10,01,10,27,12.80
2012,10,01,10,28,12.80
2012,10,01,10,29,12.80
2012,10,01,10,30,12.80
2012,10,01,10,31,12.80
2012,10,01,10,32,12.80
2012,10,01,10,33,12.80
2012,10,01,10,34,12.80
2012,10,01,10,35,12.90
2012,10,01,10,36,12.90
2012,10,01,10,37,12.90
2012,10,01,10,38,12.90
2012,10,01,10,39,12.90
2012,10,01,10,40,13.00
2012,10,01,10,41,13.00
2012,10,01,10,42,13.00
2012,10,01,10,43,13.10
2012,10,01,10,44,13.00
2012,10,01,10,45,13.00
2012,10,01,10,46,13.00
2012,10,01,10,47,12.90
2012,10,01,10,48,12.90
2012,10,01,10,49,12.80
2012,10,01,10,50,12.80
2012,10,01,10,51,12.80
2012,10,01,10,52,12.80
2012,10,01,10,53,12.80
2012,10,01,10,54,12.90
2012,10,01,10,55,12.90
2012,10,01,10,56,12.90
2012,10,01,10,57,12.90
2012,10,01,10,58,13.00
2012,10,01,10,59,13.00
2012,10,01,11,00,13.10
2012,10,01,11,01,13.10
2012,10,01,11,02,13.10
2012,10,01,11,03,13.10
2012,10,01,11,04,13.20
2012,10,01,11,05,13.20
2012,10,01,11,06,13.30
2012,10,01,11,07,13.30
2012,10,01,11,08,13.40
2012,10,01,11,09,13.50
2012,10,01,11,10,13.60
2012,10,01,11,11,13.80
2012,10,01,11,12,13.90
2012,10,01,11,13,14.00
2012,10,01,11,14,14.10
2012,10,01,11,15,14.10
2012,10,01,11,16,14.20
2012,10,01,11,17,14.10
2012,10,01,11,18,14.20
2012,10,01,11,19,14.20
2012,10,01,11,20,14.20
2012,10,01,11,21,14.30
2012,10,01,11,22,14.40
2012,10,01,11,23,14.40
2012,10,01,11,24,14.50
2012,10,01,11,25,14.60
2012,10,01,11,26,14.70
2012,10,01,11,27,14.80
2012,10,01,11,28,14.90
2012,10,01,11,29,15.00
2012,10,01,11,30,15.10
2012,10,01,11,31,15.10
2012,10,01,11,32,15.10
2012,10,01,11,33,15.10
2012,10,01,11,34,15.00
2012,10,01,11,35,15.10
2012,10,01,11,36,15.00
2012,10,01,11,37,15.00
2012,10,01,11,38,15.00
2012,10,01,11,39,15.00
2012,10,01,11,40,15.00
2012,10,01,11,41,15.00
2012,10,01,11,42,15.10
2012,10,01,11,43,15.00
2012,10,01,11,44,15.10
2012,10,01,11,45,15.00
2012,10,01,11,46,14.90
2012,10,01,11,47,14.90
2012,10,01,11,48,14.80
2012,10,01,11,49,14.80
2012,10,01,11,50,14.80
2012,10,01,11,51,14.80
2012,10,01,11,52,14.80
2012,10,01,11,53,14.70
2012,10,01,11,54,14.50
2012,10,01,11,55,14.40
2012,10,01,11,56,14.30
2012,10,01,11,57,14.20
2012,10,01,11,58,14.20
2012,10,01,11,59,14.20
2012,10,01,12,00,14.20
2012,10,01,12,01,14.20
2012,10,01,12,02,14.20
2012,10,01,12,03,14.10
2012,10,01,12,04,14.10
2012,10,01,12,05,14.00
2012,10,01,12,06,14.00
2012,10,01,12,07,14.00
2012,10,01,12,08,14.00
2012,10,01,12,09,14.00
2012,10,01,12,10,14.00
2012,10,01,12,11,13.90
2012,10,01,12,12,13.90
2012,10,01,12,13,14.00
2012,10,01,12,14,14.00
2012,10,01,12,15,14.10
2012,10,01,12,16,14.10
2012,10,01,12,17,14.10
2012,10,01,12,18,14.20
2012,10,01,12,19,14.20
2012,10,01,12,20,14.20
2012,10,01,12,21,14.30
2012,10,01,12,22,14.30
2012,10,01,12,23,14.40
2012,10,01,12,24,14.50
2012,10,01,12,25,14.50
2012,10,01,12,26,14.60
2012,10,01,12,27,14.70
2012,10,01,12,28,14.80
2012,10,01,12,29,14.80
2012,10,01,12,30,14.90
2012,10,01,12,31,14.90
2012,10,01,12,32,15.00
2012,10,01,12,33,15.10
2012,10,01,12,34,15.10
2012,10,01,12,35,15.20
2012,10,01,12,36,15.20
2012,10,01,12,37,15.30
2012,10,01,12,38,15.30
2012,10,01,12,39,15.30
2012,10,01,12,40,15.40
2012,10,01,12,41,15.50
2012,10,01,12,42,15.50
2012,10,01,12,43,15.60
2012,10,01,12,44,15.60
2012,10,01,12,45,15.60
2012,10,01,12,46,15.60
2012,10,01,12,47,15.50
2012,10,01,12,48,15.50
2012,10,01,12,49,15.50
2012,10,01,12,50,15.40
2012,10,01,12,51,15.30
2012,10,01,12,52,15.30
2012,10,01,12,53,15.30
2012,10,01,12,54,15.30
2012,10,01,12,55,15.30
2012,10,01,12,56,15.30
2012,10,01,12,57,15.30
2012,10,01,12,58,15.30
2012,10,01,12,59,15.30
2012,10,01,13,00,15.20
2012,10,01,13,01,15.20
2012,10,01,13,02,15.20
2012,10,01,13,03,15.20
2012,10,01,13,04,15.10
2012,10,01,13,05,15.00
2012,10,01,13,06,14.90
2012,10,01,13,07,14.80
2012,10,01,13,08,14.70
2012,10,01,13,09,14.60
2012,10,01,13,10,14.50
2012,10,01,13,11,14.40
2012,10,01,13,12,14.30
2012,10,01,13,13,14.30
2012,10,01,13,14,14.20
2012,10,01,13,15,14.20
2012,10,01,13,16,14.20
2012,10,01,13,17,14.10
2012,10,01,13,18,14.20
2012,10,01,13,19,14.20
2012,10,01,13,20,14.20
2012,10,01,13,21,14.20
2012,10,01,13,22,14.20
2012,10,01,13,23,14.20
2012,10,01,13,24,14.10
2012,10,01,13,25,14.10
2012,10,01,13,26,14.20
2012,10,01,13,27,14.20
2012,10,01,13,28,14.20
2012,10,01,13,29,14.20
2012,10,01,13,30,14.20
2012,10,01,13,31,14.20
2012,10,01,13,32,14.20
2012,10,01,13,33,14.20
2012,10,01,13,34,14.20
2012,10,01,13,35,14.20
2012,10,01,13,36,14.20
2012,10,01,13,37,14.30
2012,10,01,13,38,14.30
2012,10,01,13,39,14.30
2012,10,01,13,40,14.30
2012,10,01,13,41,14.30
2012,10,01,13,42,14.30
2012,10,01,13,43,14.30
2012,10,01,13,44,14.30
2012,10,01,13,45,14.30
2012,10,01,13,46,14.40
2012,10,01,13,47,14.40
2012,10,01,13,48,14.40
2012,10,01,13,49,14.40
2012,10,01,13,50,14.40
2012,10,01,13,51,14.40
2012,10,01,13,52,14.40
2012,10,01,13,53,14.50
2012,10,01,13,54,14.50
2012,10,01,13,55,14.60
2012,10,01,13,56,14.60
2012,10,01,13,57,14.60
2012,10,01,13,58,14.70
2012,10,01,13,59,14.70
2012,10,01,14,00,14.70
2012,10,01,14,01,14.80
2012,10,01,14,02,14.80
2012,10,01,14,03,14.80
2012,10,01,14,04,14.90
2012,10,01,14,05,15.00
2012,10,01,14,06,15.00
2012,10,01,14,07,15.10
2012,10,01,14,08,15.20
2012,10,01,14,09,15.20
2012,10,01,14,10,15.20
2012,10,01,14,11,15.20
2012,10,01,14,12,15.30
2012,10,01,14,13,15.30
2012,10,01,14,14,15.30
2012,10,01,14,15,15.30
2012,10,01,14,16,15.30
2012,10,01,14,17,15.30
2012,10,01,14,18,15.30
2012,10,01,14,19,15.30
2012,10,01,14,20,15.40
2012,10,01,14,21,15.40
2012,10,01,14,22,15.40
2012,10,01,14,23,15.50
2012,10,01,14,24,15.50
2012,10,01,14,25,15.50
2012,10,01,14,26,15.60
2012,10,01,14,27,15.60
2012,10,01,14,28,15.60
2012,10,01,14,29,15.60
2012,10,01,14,30,15.60
2012,10,01,14,31,15.60
2012,10,01,14,32,15.60
2012,10,01,14,33,15.60
2012,10,01,14,34,15.50
2012,10,01,14,35,15.50
2012,10,01,14,36,15.50
2012,10,01,14,37,15.40
2012,10,01,14,38,15.40
2012,10,01,14,39,15.40
2012,10,01,14,40,15.30
2012,10,01,14,41,15.30
2012,10,01,14,42,15.30
2012,10,01,14,43,15.30
2012,10,01,14,44,15.30
2012,10,01,14,45,15.30
2012,10,01,14,46,15.30
2012,10,01,14,47,15.30
2012,10,01,14,48,15.30
2012,10,01,14,49,15.30
2012,10,01,14,50,15.30
2012,10,01,14,51,15.30
2012,10,01,14,52,15.30
2012,10,01,14,53,15.40
2012,10,01,14,54,15.40
2012,10,01,14,55,15.40
2012,10,01,14,56,15.40
2012,10,01,14,57,15.50
2012,10,01,14,58,15.50
2012,10,01,14,59,15.60
2012,10,01,15,00,15.60
2012,10,01,15,01,15.60
2012,10,01,15,02,15.60
2012,10,01,15,03,15.60
2012,10,01,15,04,15.70
2012,10,01,15,05,15.70
2012,10,01,15,06,15.70
2012,10,01,15,07,15.70
2012,10,01,15,08,15.80
2012,10,01,15,09,15.80
2012,10,01,15,10,15.80
2012,10,01,15,11,15.90
2012,10,01,15,12,16.00
2012,10,01,15,13,16.10
2012,10,01,15,14,16.20
2012,10,01,15,15,16.30
2012,10,01,15,16,16.30
2012,10,01,15,17,16.40
2012,10,01,15,18,16.50
2012,10,01,15,19,16.60
2012,10,01,15,20,16.70
2012,10,01,15,21,16.70
2012,10,01,15,22,16.80
2012,10,01,15,23,16.90
2012,10,01,15,24,17.00
2012,10,01,15,25,17.10
2012,10,01,15,26,17.20
2012,10,01,15,27,17.20
2012,10,01,15,28,17.30
2012,10,01,15,29,17.30
2012,10,01,15,30,17.30
2012,10,01,15,31,17.40
2012,10,01,15,32,17.40
2012,10,01,15,33,17.50
2012,10,01,15,34,17.50
2012,10,01,15,35,17.60
2012,10,01,15,36,17.70
2012,10,01,15,37,17.70
2012,10,01,15,38,17.80
2012,10,01,15,39,17.80
2012,10,01,15,40,17.90
2012,10,01,15,41,18.00
2012,10,01,15,42,18.10
2012,10,01,15,43,18.20
2012,10,01,15,44,18.30
2012,10,01,15,45,18.40
2012,10,01,15,46,18.50
2012,10,01,15,47,18.60
2012,10,01,15,48,18.80
2012,10,01,15,49,18.80
2012,10,01,15,50,18.90
2012,10,01,15,51,18.90
2012,10,01,15,52,19.00
2012,10,01,15,53,19.10
2012,10,01,15,54,19.20
2012,10,01,15,55,19.30
2012,10,01,15,56,19.30
2012,10,01,15,57,19.30
2012,10,01,15,58,19.30
2012,10,01,15,59,19.20
2012,10,01,16,00,19.20
2012,10,01,16,01,19.10
2012,10,01,16,02,19.00
2012,10,01,16,03,18.90
2012,10,01,16,04,18.90
2012,10,01,16,05,18.80
2012,10,01,16,06,18.80
2012,10,01,16,07,18.70
2012,10,01,16,08,18.70
2012,10,01,16,09,18.70
2012,10,01,16,10,18.70
2012,10,01,16,11,18.70
2012,10,01,16,12,18.80
2012,10,01,16,13,18.80
2012,10,01,16,14,18.90
2012,10,01,16,15,19.00
2012,10,01,16,16,19.20
2012,10,01,16,17,19.30
2012,10,01,16,18,19.40
2012,10,01,16,19,19.50
2012,10,01,16,20,19.60
2012,10,01,16,21,19.60
2012,10,01,16,22,19.60
2012,10,01,16,23,19.60
2012,10,01,16,24,19.70
2012,10,01,16,25,19.90
2012,10,01,16,26,20.10
2012,10,01,16,27,20.30
2012,10,01,16,28,20.40
2012,10,01,16,29,20.50
2012,10,01,16,30,20.60
2012,10,01,16,31,20.60
2012,10,01,16,32,20.70
2012,10,01,16,33,20.80
2012,10,01,16,34,21.00
2012,10,01,16,35,21.10
2012,10,01,16,36,21.20
2012,10,01,16,37,21.20
2012,10,01,16,38,21.30
2012,10,01,16,39,21.30
2012,10,01,16,40,21.30
2012,10,01,16,41,21.30
2012,10,01,16,42,21.30
2012,10,01,16,43,21.30
2012,10,01,16,44,21.30
2012,10,01,16,45,21.40
2012,10,01,16,46,21.50
2012,10,01,16,47,21.60
2012,10,01,16,48,21.70
2012,10,01,16,49,21.80
2012,10,01,16,50,21.90
2012,10,01,16,51,21.90
2012,10,01,16,52,22.00
2012,10,01,16,53,22.10
2012,10,01,16,54,22.10
2012,10,01,16,55,22.20
2012,10,01,16,56,22.20
2012,10,01,16,57,22.20
2012,10,01,16,58,22.30
2012,10,01,16,59,22.30
2012,10,01,17,00,22.30
2012,10,01,17,01,22.30
2012,10,01,17,02,22.30
2012,10,01,17,03,22.30
2012,10,01,17,04,22.20
2012,10,01,17,05,22.20
2012,10,01,17,06,22.20
2012,10,01,17,07,22.20
2012,10,01,17,08,22.20
2012,10,01,17,09,22.20
2012,10,01,17,10,22.20
2012,10,01,17,11,22.20
2012,10,01,17,12,22.20
2012,10,01,17,13,22.20
2012,10,01,17,14,22.20
2012,10,01,17,15,22.20
2012,10,01,17,16,22.10
2012,10,01,17,17,22.10
2012,10,01,17,18,22.10
2012,10,01,17,19,22.10
2012,10,01,17,20,22.10
2012,10,01,17,21,22.10
2012,10,01,17,22,22.00
2012,10,01,17,23,22.00
2012,10,01,17,24,21.90
2012,10,01,17,25,21.90
2012,10,01,17,26,21.80
2012,10,01,17,27,21.80
2012,10,01,17,28,21.80
2012,10,01,17,29,21.70
2012,10,01,17,30,21.70
2012,10,01,17,31,21.70
2012,10,01,17,32,21.60
2012,10,01,17,33,21.50
2012,10,01,17,34,21.50
2012,10,01,17,35,21.40
2012,10,01,17,36,21.40
2012,10,01,17,37,21.40
2012,10,01,17,38,21.40
2012,10,01,17,39,21.40
2012,10,01,17,40,21.30
2012,10,01,17,41,21.30
2012,10,01,17,42,21.30
2012,10,01,17,43,21.30